[[{"header":{"parameterUnit":"m.s-1","parameterCategory":1,"la1":30.2991,"la2":30.254,"lo1":-89.0895,"lo2":-89.0444,"dy":0.0017,"dx":0.0017,"nx":28,"ny":28,"refTime":"2025-08-24T21:00:00:Z","depth":0,"parameterNumber":2,"parameterNumberName":"U-component_of_WINDS"},"data":[0,0,0,0,0,0,0,0,0,0,0,0,0,0,0,0,0,0,0,0,0,0,0,0,0,0,0,0,0,0,0,0,0,0,0,0,0,0,0,0,0,0,0,0,0,0,0,0,0,0,0,0,0,0,0,0,0,0,-2.5922,-2.5921,0,-2.5903,-2.5903,-2.5902,-2.5862,-2.5862,-2.5861,-2.586,-2.5841,-2.5841,-2.5841,0,0,0,0,0,0,0,0,0,0,0,0,0,-2.5924,-2.5924,-2.5922,-2.5921,-2.5921,-2.5903,-2.5903,-2.5902,-2.5863,-2.5862,-2.5861,-2.586,-2.5841,-2.5841,-2.5841,0,0,0,0,0,0,0,0,0,0,0,0,0,-2.5916,-2.5924,-2.5922,-2.5899,-2.5897,-2.5903,-2.5903,-2.5902,-2.5863,-2.5862,-2.586,-2.5859,-2.5841,-2.5841,-2.5841,-2.5868,0,0,-2.5843,-2.5843,0,0,0,0,0,0,0,0,-2.5916,-2.5916,-2.5903,-2.5901,-2.5898,-2.5884,-2.5896,-2.5891,-2.5863,-2.5876,-2.586,-2.5859,-2.5856,-2.5855,-2.5854,-2.5867,-2.5866,-2.5843,-2.5843,-2.5843,-2.5843,0,0,0,0,0,0,0,-2.5917,-2.5916,-2.5914,-2.5902,-2.59,-2.589,-2.5888,-2.5895,-2.5873,-2.5874,-2.5872,-2.587,-2.5855,-2.5854,-2.5854,-2.5866,-2.5843,-2.5843,-2.5843,-2.5843,-2.59,-2.5901,0,0,0,0,0,0,-2.5921,-2.5917,-2.5915,-2.5914,-2.5904,-2.5891,-2.5888,-2.589,-2.5873,-2.5869,-2.5871,-2.5868,-2.5854,-2.5853,-2.5853,-2.5881,-2.5843,-2.5843,-2.5843,-2.5898,-2.59,-2.5901,0,0,0,0,0,0,-2.5921,-2.5921,-2.5915,-2.5915,-2.5913,-2.5892,-2.5894,-2.589,-2.5889,-2.587,-2.5866,-2.5874,-2.5853,-2.5852,-2.5864,-2.588,-2.5843,-2.5844,-2.5897,-2.5899,-2.5901,-2.594,0,0,0,0,0,0,-2.5921,-2.5921,-2.593,-2.5915,-2.5913,-2.5927,-2.5895,-2.589,-2.589,-2.5886,-2.5872,-2.5869,-2.5852,-2.5864,-2.5865,-2.588,-2.5844,-2.5895,-2.5898,-2.59,-2.5937,-2.5943,-2.5948,0,0,0,0,0,-2.5921,-2.5942,-2.5931,-2.5931,-2.5925,-2.5928,-2.5927,-2.5907,-2.5891,-2.59,-2.5889,-2.5869,-2.5879,-2.5866,-2.5866,-2.5882,-2.5894,-2.5897,-2.59,-2.5935,-2.5942,-2.5948,0,0,0,0,0,0,-2.596,-2.594,-2.5927,-2.5944,-2.5938,-2.5921,-2.5932,-2.5916,-2.5914,-2.5911,-2.5887,-2.5884,-2.5899,-2.5892,-2.5878,-2.5907,-2.5884,-2.5887,-2.591,-2.5917,-2.5922,-2.5922,-2.5844,0,0,0,0,0,-2.597,-2.5975,-2.5957,-2.5974,-2.5972,-2.5953,-2.5954,-2.5939,-2.5932,-2.5929,-2.5918,-2.5912,-2.5914,-2.5916,-2.5916,-2.5937,-2.5933,-2.5949,-2.5954,-2.5959,-2.5961,-2.5971,-2.5977,-2.5911,-2.5911,-2.5911,0,0,-2.5992,-2.5982,-2.5985,-2.5981,-2.5975,-2.598,-2.5951,-2.5957,-2.596,-2.593,-2.594,-2.5933,-2.5925,-2.5941,-2.5948,-2.5936,-2.5979,-2.5962,-2.5966,-2.5965,-2.5974,-2.598,-2.5986,-2.5913,-2.5912,-2.5912,0,0,-2.6033,-2.6026,-2.6038,-2.6033,-2.6024,-2.6012,-2.6016,-2.6002,-2.5995,-2.6006,-2.5983,-2.5988,-2.5991,-2.5986,-2.5984,-2.6026,-2.6007,-2.6027,-2.6054,-2.6064,-2.607,-2.6074,-2.6087,-2.6092,-2.603,-2.603,-2.603,0,-2.606,-2.6066,-2.6047,-2.6055,-2.6053,-2.6028,-2.604,-2.6036,-2.6028,-2.6028,-2.6015,-2.602,-2.6012,-2.6027,-2.6037,-2.6037,-2.604,-2.6027,-2.6071,-2.6075,-2.6079,-2.6091,-2.6096,-2.6032,-2.6032,-2.6032,-2.6032,0,-2.6099,-2.6105,-2.6116,-2.6109,-2.6109,-2.612,-2.6102,-2.6105,-2.6092,-2.6081,-2.6092,-2.6084,-2.6082,-2.6085,-2.6072,-2.6098,-2.6091,-2.6075,-2.605,-2.6087,-2.6098,-2.6103,-2.6036,-2.6035,-2.6034,-2.6034,0,0,-2.616,-2.6144,-2.6148,-2.6145,-2.6135,-2.6138,-2.6148,-2.6147,-2.6149,-2.6146,-2.6152,-2.6158,-2.6143,-2.6141,-2.6128,-2.6137,-2.6169,-2.612,-2.6119,-2.6127,-2.6195,-2.6205,-2.6211,-2.6158,-2.6159,-2.616,-2.6195,0,-2.6196,-2.6211,-2.6195,-2.6213,-2.6217,-2.6194,-2.6203,-2.6198,-2.6189,-2.6192,-2.6182,-2.6185,-2.6167,-2.6165,-2.6174,-2.6163,-2.6182,-2.6161,-2.6163,-2.6163,-2.6162,-2.6217,-2.6227,-2.6261,-2.62,-2.6201,-2.6201,0,-2.6239,-2.6238,-2.6256,-2.6245,-2.6246,-2.6254,-2.6252,-2.6255,-2.6249,-2.6243,-2.6241,-2.6226,-2.6235,-2.6214,-2.6226,-2.6212,-2.6213,-2.6208,-2.6209,-2.6206,-2.6182,-2.6213,-2.6271,-2.6276,-2.6208,-2.6207,-2.6207,0,-2.6279,-2.6282,-2.6293,-2.6291,-2.628,-2.6285,-2.6281,-2.6274,-2.6275,-2.6273,-2.6273,-2.6274,-2.6273,-2.6274,-2.6259,-2.6245,-2.6272,-2.625,-2.6265,-2.6266,-2.6269,-2.6269,-2.6326,-2.6275,-2.6275,-2.6275,-2.6275,0,-2.6319,-2.633,-2.6311,-2.6317,-2.633,-2.6313,-2.6326,-2.6319,-2.6314,-2.6319,-2.6301,-2.6306,-2.6287,-2.6291,-2.628,-2.6291,-2.6291,-2.6285,-2.6282,-2.6285,-2.6286,-2.6283,-2.6279,-2.6276,-2.6276,-2.6276,-2.6275,0,-2.6363,-2.6351,-2.6361,-2.635,-2.6348,-2.6357,-2.6348,-2.6354,-2.6345,-2.6352,-2.6352,-2.6338,-2.6342,-2.6328,-2.6329,-2.6322,-2.6337,-2.6331,-2.6339,-2.6336,-2.6351,-2.6349,-2.6406,-2.6412,-2.636,-2.6361,-2.6361,0,-2.6388,-2.6396,-2.6387,-2.6389,-2.6385,-2.6389,-2.639,-2.6375,-2.6376,-2.6371,-2.6377,-2.6379,-2.638,-2.6386,-2.6376,-2.6377,-2.6369,-2.6389,-2.6369,-2.6372,-2.6366,-2.6365,-2.6365,-2.6392,-2.6393,-2.6394,-2.6394,0,-2.6433,-2.6427,-2.6428,-2.6428,-2.6429,-2.6428,-2.6426,-2.6429,-2.6413,-2.6416,-2.6419,-2.6419,-2.6421,-2.6422,-2.6422,-2.6417,-2.6402,-2.6401,-2.6404,-2.6406,-2.6409,-2.6406,-2.6347,-2.6399,-2.6398,-2.6398,-2.6398,-2.6398,-2.6466,-2.6473,-2.6467,-2.6469,-2.6466,-2.6465,-2.647,-2.6463,-2.6465,-2.6465,-2.6456,-2.6461,-2.6457,-2.6454,-2.6451,-2.6455,-2.6445,-2.6451,-2.6451,-2.6452,-2.6454,-2.6412,-2.6455,-2.6455,-2.6455,-2.6455,-2.6455,0,-2.6508,-2.6504,-2.6506,-2.6504,-2.6506,-2.6494,-2.6492,-2.6494,-2.6499,-2.6496,-2.6497,-2.6501,-2.6503,-2.6495,-2.6496,-2.65,-2.6494,-2.6501,-2.6499,-2.6498,-2.6463,-2.6459,-2.6506,-2.6506,-2.6506,-2.6506,-2.6506,-2.6506,-2.6529,-2.6539,-2.6533,-2.6541,-2.6537,-2.6542,-2.6541,-2.654,-2.6538,-2.6543,-2.6545,-2.654,-2.6534,-2.6535,-2.6537,-2.6534,-2.6535,-2.6544,-2.6539,-2.6506,-2.65,-2.6496,-2.6491,-2.6545,-2.6545,-2.6573,-2.6573,-2.6573]},{"header":{"parameterUnit":"m.s-1","parameterCategory":1,"la1":30.2991,"la2":30.254,"lo1":-89.0895,"lo2":-89.0444,"dy":0.0017,"dx":0.0017,"nx":28,"ny":28,"refTime":"2025-08-24T21:00:00:Z","depth":0,"parameterNumber":3,"parameterNumberName":"V-component_of_WINDS"},"data":[0,0,0,0,0,0,0,0,0,0,0,0,0,0,0,0,0,0,0,0,0,0,0,0,0,0,0,0,0,0,0,0,0,0,0,0,0,0,0,0,0,0,0,0,0,0,0,0,0,0,0,0,0,0,0,0,0,0,3.5518,3.5518,0,3.5529,3.5529,3.5529,3.5567,3.5568,3.5569,3.557,3.5575,3.5575,3.5574,0,0,0,0,0,0,0,0,0,0,0,0,0,3.5527,3.5527,3.5518,3.5518,3.5518,3.5529,3.5529,3.5529,3.5567,3.5568,3.5569,3.557,3.5576,3.5575,3.5574,0,0,0,0,0,0,0,0,0,0,0,0,0,3.5529,3.5527,3.5518,3.5539,3.5541,3.5529,3.5529,3.5529,3.5567,3.5568,3.5569,3.5571,3.5576,3.5575,3.5574,3.5541,0,0,3.5571,3.557,0,0,0,0,0,0,0,0,3.5529,3.5528,3.5536,3.5537,3.5539,3.5548,3.5534,3.5533,3.5566,3.5557,3.557,3.5571,3.5565,3.5565,3.5564,3.5541,3.5542,3.5571,3.557,3.557,3.5569,0,0,0,0,0,0,0,3.5528,3.5528,3.5522,3.5536,3.5538,3.5546,3.5548,3.5534,3.5553,3.5558,3.556,3.5561,3.5566,3.5565,3.5564,3.5542,3.5571,3.557,3.5569,3.5569,3.5493,3.5492,0,0,0,0,0,0,3.5526,3.5528,3.5522,3.5522,3.5537,3.5545,3.5547,3.5544,3.5553,3.5556,3.556,3.5563,3.5566,3.5565,3.5564,3.5527,3.557,3.5569,3.5568,3.5495,3.5493,3.5492,0,0,0,0,0,0,3.5526,3.5525,3.5521,3.5526,3.5526,3.5543,3.554,3.5543,3.5542,3.5555,3.5559,3.5555,3.5567,3.5566,3.5547,3.5528,3.5568,3.5567,3.5496,3.5494,3.5492,3.5451,0,0,0,0,0,0,3.5526,3.5525,3.5513,3.5525,3.5526,3.5505,3.5538,3.5543,3.5541,3.5545,3.5552,3.5554,3.5568,3.5548,3.5546,3.5527,3.5566,3.5498,3.5495,3.5493,3.5455,3.5448,3.5443,0,0,0,0,0,3.5526,3.55,3.5513,3.5512,3.5512,3.5504,3.5504,3.5521,3.5539,3.5527,3.5536,3.5554,3.553,3.5546,3.5544,3.5524,3.5499,3.5496,3.5493,3.5457,3.5449,3.5443,0,0,0,0,0,0,3.5483,3.5502,3.5516,3.5493,3.5497,3.551,3.5496,3.5512,3.5509,3.5513,3.5533,3.5535,3.5513,3.5517,3.5534,3.5493,3.5518,3.5514,3.5491,3.5484,3.5478,3.5477,3.5566,0,0,0,0,0,3.5472,3.5465,3.5481,3.5459,3.5461,3.5478,3.5475,3.5488,3.5492,3.5493,3.55,3.5502,3.5495,3.549,3.5484,3.5456,3.5458,3.5441,3.5435,3.543,3.5426,3.5412,3.5405,3.5481,3.5481,3.5481,0,0,3.5446,3.5456,3.545,3.5451,3.5455,3.5446,3.5479,3.5468,3.5461,3.5491,3.5474,3.548,3.5483,3.5459,3.5449,3.5462,3.5406,3.5426,3.5422,3.5421,3.5408,3.5401,3.5394,3.5479,3.5479,3.548,0,0,3.5396,3.5403,3.5386,3.539,3.5397,3.5409,3.5405,3.5416,3.5422,3.5406,3.5428,3.542,3.5407,3.5409,3.5408,3.536,3.5376,3.5358,3.5326,3.5312,3.5306,3.53,3.5283,3.5277,3.5354,3.5354,3.5354,0,3.5364,3.5353,3.5375,3.5363,3.5363,3.5392,3.5374,3.5376,3.538,3.5379,3.5393,3.5379,3.5383,3.5361,3.5349,3.5348,3.5343,3.5356,3.5305,3.53,3.5295,3.5279,3.5273,3.5351,3.5352,3.5352,3.5352,0,3.5313,3.5305,3.529,3.5295,3.5293,3.5278,3.5297,3.5292,3.5306,3.5316,3.5299,3.5306,3.5302,3.5298,3.531,3.5277,3.5285,3.5302,3.5327,3.5285,3.527,3.5264,3.5348,3.5349,3.535,3.535,0,0,3.5234,3.5253,3.5247,3.525,3.5261,3.5254,3.5241,3.5239,3.5235,3.5236,3.5225,3.5215,3.5232,3.523,3.5244,3.5231,3.5193,3.525,3.525,3.5239,3.5156,3.5143,3.5135,3.5204,3.5203,3.5202,3.5156,0,3.5187,3.5166,3.5186,3.5161,3.5154,3.5182,3.517,3.5174,3.5183,3.5178,3.5187,3.518,3.5202,3.5202,3.5191,3.52,3.5176,3.5203,3.5192,3.5192,3.519,3.5127,3.5113,3.5069,3.515,3.5149,3.5148,0,3.5128,3.5129,3.5104,3.5117,3.5115,3.5104,3.5105,3.5099,3.5105,3.5112,3.5112,3.5129,3.5116,3.5141,3.5123,3.5141,3.5138,3.5141,3.514,3.5139,3.5167,3.5124,3.5055,3.5048,3.5139,3.514,3.5141,0,3.5073,3.5069,3.5053,3.5055,3.507,3.5062,3.5067,3.5074,3.5072,3.5072,3.5071,3.5069,3.5067,3.5065,3.508,3.5097,3.506,3.5086,3.5065,3.5064,3.5055,3.5055,3.4984,3.5053,3.5053,3.5053,3.5054,0,3.5018,3.5001,3.5029,3.5019,3.5002,3.5024,3.5005,3.5014,3.502,3.5012,3.5035,3.5026,3.5048,3.5041,3.5053,3.5036,3.5035,3.504,3.5044,3.5038,3.5037,3.5036,3.5039,3.5052,3.5052,3.5052,3.5053,0,3.4953,3.4972,3.4957,3.4973,3.4976,3.4962,3.4975,3.4966,3.4978,3.4967,3.4966,3.4983,3.4977,3.4993,3.4988,3.4996,3.4971,3.498,3.497,3.4972,3.495,3.4952,3.4874,3.4865,3.4941,3.494,3.494,0,3.4916,3.4905,3.492,3.4917,3.4922,3.4916,3.4915,3.4937,3.4934,3.4941,3.4931,3.4927,3.4925,3.4913,3.4924,3.4921,3.4929,3.4902,3.4928,3.4923,3.4928,3.4929,3.4928,3.4896,3.4895,3.4895,3.4894,0,3.4849,3.4859,3.4857,3.4859,3.4857,3.4859,3.4862,3.4858,3.4881,3.4877,3.4872,3.487,3.4867,3.4862,3.4862,3.4866,3.4883,3.4886,3.4881,3.4875,3.487,3.4872,3.4955,3.4887,3.4888,3.4888,3.4889,3.4889,3.4797,3.4788,3.4798,3.4795,3.4801,3.4803,3.4796,3.4808,3.4804,3.4804,3.4817,3.4809,3.4815,3.4817,3.4819,3.4813,3.4825,3.4817,3.4815,3.4813,3.4809,3.4871,3.4812,3.4813,3.4813,3.4813,3.4813,0,3.4731,3.4739,3.4737,3.4742,3.4739,3.4758,3.4763,3.4759,3.4753,3.4758,3.4756,3.475,3.4746,3.4758,3.4755,3.4748,3.4756,3.4746,3.4747,3.4747,3.4798,3.4803,3.474,3.474,3.474,3.474,3.474,3.474,3.4696,3.4683,3.4694,3.4683,3.4691,3.4685,3.4686,3.4688,3.4692,3.4685,3.4683,3.4691,3.4699,3.4697,3.4694,3.4698,3.4695,3.4683,3.4689,3.4737,3.4744,3.475,3.4755,3.4683,3.4682,3.4639,3.4638,3.4638]}]]